TimeCDT,TemperatureF,Dew PointF,Humidity,Sea Level PressureIn,VisibilityMPH,Wind Direction,Wind SpeedMPH,Gust SpeedMPH,PrecipitationIn,Events,Conditions,WindDirDegrees,DateUTC
12:53 AM,36.0,19.9,52,30.18,10.0,Calm,Calm,-,N/A,,Clear,0,2013-03-20 05:53:00
1:53 AM,33.1,21.0,61,30.19,10.0,Calm,Calm,-,N/A,,Clear,0,2013-03-20 06:53:00
2:53 AM,34.0,21.0,59,30.17,10.0,Calm,Calm,-,N/A,,Clear,0,2013-03-20 07:53:00
3:53 AM,30.0,21.0,69,30.15,10.0,Calm,Calm,-,N/A,,Clear,0,2013-03-20 08:53:00
4:53 AM,30.0,23.0,75,30.14,10.0,Calm,Calm,-,N/A,,Clear,0,2013-03-20 09:53:00
5:53 AM,30.9,21.9,69,30.15,10.0,Calm,Calm,-,N/A,,Clear,0,2013-03-20 10:53:00
6:53 AM,30.9,19.9,64,30.17,10.0,WSW,5.8,-,N/A,,Clear,240,2013-03-20 11:53:00
7:53 AM,35.1,23.0,61,30.18,10.0,West,5.8,-,N/A,,Clear,260,2013-03-20 12:53:00
8:53 AM,42.1,21.9,45,30.17,10.0,WSW,6.9,-,N/A,,Clear,250,2013-03-20 13:53:00
9:53 AM,46.0,21.9,39,30.15,10.0,NW,8.1,-,N/A,,Clear,310,2013-03-20 14:53:00
10:53 AM,46.9,24.1,41,30.14,10.0,West,11.5,16.1,N/A,,Clear,280,2013-03-20 15:53:00
11:53 AM,48.9,26.1,41,30.13,10.0,WNW,10.4,18.4,N/A,,Partly Cloudy,300,2013-03-20 16:53:00
12:53 PM,48.9,24.1,38,30.11,10.0,WNW,12.7,20.7,N/A,,Clear,290,2013-03-20 17:53:00
1:53 PM,46.9,23.0,39,30.08,10.0,WNW,12.7,25.3,N/A,,Mostly Cloudy,300,2013-03-20 18:53:00
2:53 PM,44.1,23.0,43,30.07,10.0,WNW,12.7,23.0,N/A,,Overcast,300,2013-03-20 19:53:00
3:53 PM,41.0,26.1,55,30.08,10.0,NNW,11.5,19.6,N/A,,Overcast,330,2013-03-20 20:53:00
4:53 PM,41.0,19.9,43,30.08,10.0,NW,16.1,20.7,N/A,,Partly Cloudy,320,2013-03-20 21:53:00
5:53 PM,39.0,15.1,38,30.09,10.0,NW,11.5,25.3,N/A,,Clear,310,2013-03-20 22:53:00
6:53 PM,36.0,12.0,37,30.09,10.0,NW,13.8,23.0,N/A,,Clear,310,2013-03-20 23:53:00
7:53 PM,33.1,14.0,46,30.09,10.0,NNW,9.2,-,N/A,,Clear,330,2013-03-21 00:53:00
8:53 PM,30.9,12.9,47,30.11,10.0,NW,5.8,-,N/A,,Clear,320,2013-03-21 01:53:00
9:53 PM,30.0,12.9,49,30.11,10.0,NNW,8.1,-,N/A,,Clear,330,2013-03-21 02:53:00
10:53 PM,28.0,12.9,53,30.11,10.0,North,4.6,-,N/A,,Clear,350,2013-03-21 03:53:00
11:53 PM,27.0,12.9,56,30.11,10.0,NNW,3.5,-,N/A,,Clear,340,2013-03-21 04:53:00